Humidity-temperature Sensor

Selected Measurement Type: Air Temperature

 
Air Temperature [°C]     6 entries per hour
Showing data from 4/29/2022 (00:00:00 Z) to 4/22/2022 (00:01:00 Z)
Previous Next [ Day | 3-Days | 7-Days ]
First Last
Prev [ Day | 3-Days | 7-Days ] Next
First Last

Start Time:     :
End Time:     :     
Time (in GMT) :00 :50 :40 :30 :20 :10
Previous Next [ Day | 3-Days | 7-Days ]
First Last
Prev [ Day | 3-Days | 7-Days ] Next
First Last


123 => good data
MM => data is determined as missing
-- => data not received/configured
Back to Top Back to Top
4/29/2022 00:00 to 23:10 26.09 25.88 26.11 25.96 25.80 25.84
4/28/2022 23:00 to 22:10 25.89 26.00 25.61 25.85 25.80 25.75
4/28/2022 22:00 to 21:10 25.90 25.96 26.16 26.09 25.87 25.94
4/28/2022 21:00 to 20:10 25.87 26.15 26.37 26.74 26.62 26.67
4/28/2022 20:00 to 19:10 26.62 26.48 26.62 26.38 26.39 26.51
4/28/2022 19:00 to 18:10 26.28 26.37 26.15 26.17 26.23 26.31
4/28/2022 18:00 to 17:10 26.51 26.33 26.33 26.43 26.19 26.17
4/28/2022 17:00 to 16:10 26.18 26.17 26.16 26.07 25.79 25.56
4/28/2022 16:00 to 15:10 25.46 25.49 25.30 25.35 25.41 25.35
4/28/2022 15:00 to 14:10 25.51 25.35 25.12 25.05 25.07 24.87
4/28/2022 14:00 to 13:10 24.95 24.72 24.71 24.83 24.88 24.99
4/28/2022 13:00 to 12:10 24.95 24.98 24.59 24.84 24.91 25.03
4/28/2022 12:00 to 11:10 24.87 24.87 25.00 25.03 25.21 25.45
4/28/2022 11:00 to 10:10 25.45 25.70 25.72 25.94 25.90 25.81
4/28/2022 10:00 to 9:10 26.02 26.03 25.99 25.97 25.97 26.03
4/28/2022 09:00 to 8:10 25.88 26.13 26.28 26.16 26.16 26.47
4/28/2022 08:00 to 7:10 26.43 26.43 26.26 26.31 26.31 26.43
4/28/2022 07:00 to 6:10 26.48 26.78 26.58 26.61 26.29 26.43
4/28/2022 06:00 to 5:10 26.79 26.69 26.62 26.39 25.28 25.73
4/28/2022 05:00 to 4:10 26.11 26.17 26.04 26.15 26.29 26.30
4/28/2022 04:00 to 3:10 26.42 26.31 26.18 26.10 26.29 26.20
4/28/2022 03:00 to 2:10 26.40 26.89 26.75 26.79 26.78 26.66
4/28/2022 02:00 to 1:10 26.69 26.53 26.41 26.31 26.42 26.25
4/28/2022 01:00 to 0:10 26.50 26.33 25.77 26.24 25.97 25.99
4/28/2022 00:00 to 23:10 25.83 25.78 25.78 25.89 26.01 26.01
4/27/2022 23:00 to 22:10 26.14 26.20 26.58 26.60 26.43 26.60
4/27/2022 22:00 to 21:10 26.88 27.03 27.14 27.63 27.22 27.40
4/27/2022 21:00 to 20:10 27.42 27.30 26.65 26.40 26.27 26.23
4/27/2022 20:00 to 19:10 26.16 25.87 25.67 25.66 25.59 25.57
4/27/2022 19:00 to 18:10 25.46 25.74 25.92 26.00 26.19 26.90
4/27/2022 18:00 to 17:10 26.98 26.60 26.53 26.06 25.87 26.16
4/27/2022 17:00 to 16:10 26.43 27.08 27.22 27.35 27.20 26.94
4/27/2022 16:00 to 15:10 27.11 26.95 26.88 26.73 26.44 25.91
4/27/2022 15:00 to 14:10 26.03 26.00 25.94 25.77 25.41 25.67
4/27/2022 14:00 to 13:10 25.65 25.48 25.77 25.42 25.50 25.19
4/27/2022 13:00 to 12:10 25.42 25.63 25.95 26.33 26.19 26.35
4/27/2022 12:00 to 11:10 26.41 26.13 26.06 26.02 26.27 26.17
4/27/2022 11:00 to 10:10 25.93 26.25 26.00 25.96 25.65 25.57
4/27/2022 10:00 to 9:10 25.75 25.99 26.14 26.34 26.67 26.57
4/27/2022 09:00 to 8:10 26.57 26.71 26.81 26.83 26.77 26.68
4/27/2022 08:00 to 7:10 26.95 26.97 26.89 26.93 26.80 26.92
4/27/2022 07:00 to 6:10 26.66 26.87 27.01 27.10 26.89 26.94
4/27/2022 06:00 to 5:10 26.73 26.75 26.91 26.93 26.90 27.07
4/27/2022 05:00 to 4:10 26.95 26.95 26.76 26.92 26.87 26.74
4/27/2022 04:00 to 3:10 26.88 27.07 26.98 27.14 26.97 26.91
4/27/2022 03:00 to 2:10 26.58 26.58 26.64 26.68 26.51 26.43
4/27/2022 02:00 to 1:10 26.53 26.55 26.47 26.68 26.84 27.01
4/27/2022 01:00 to 0:10 27.07 26.94 26.98 27.11 27.38 27.40
4/27/2022 00:00 to 23:10 27.10 27.08 26.85 25.87 25.47 25.65
4/26/2022 23:00 to 22:10 26.05 25.92 26.58 26.69 26.66 27.10
4/26/2022 22:00 to 21:10 26.96 27.07 27.09 27.20 27.36 27.25
4/26/2022 21:00 to 20:10 27.27 27.19 27.19 27.16 27.07 27.17
4/26/2022 20:00 to 19:10 27.20 27.11 26.36 26.17 26.36 26.75
4/26/2022 19:00 to 18:10 26.05 25.56 25.78 26.12 26.06 25.78
4/26/2022 18:00 to 17:10 26.47 26.07 26.33 26.81 26.95 27.17
4/26/2022 17:00 to 16:10 27.41 27.64 27.66 27.44 27.51 27.59
4/26/2022 16:00 to 15:10 27.40 27.49 27.28 27.52 27.32 27.18
4/26/2022 15:00 to 14:10 27.18 27.33 27.44 27.05 27.08 27.11
4/26/2022 14:00 to 13:10 26.97 26.80 26.79 26.54 26.72 26.62
4/26/2022 13:00 to 12:10 26.61 26.50 26.54 26.49 26.49 26.48
4/26/2022 12:00 to 11:10 26.57 26.64 26.74 26.79 26.86 26.57
4/26/2022 11:00 to 10:10 26.47 26.28 26.15 25.93 25.62 25.81
4/26/2022 10:00 to 9:10 26.26 26.49 26.87 26.70 26.70 26.51
4/26/2022 09:00 to 8:10 26.33 26.23 26.17 26.12 25.87 25.44
4/26/2022 08:00 to 7:10 25.26 25.17 25.14 25.39 25.26 25.44
4/26/2022 07:00 to 6:10 25.64 25.59 25.82 25.80 26.16 26.25
4/26/2022 06:00 to 5:10 26.19 26.06 26.10 25.99 25.94 25.84
4/26/2022 05:00 to 4:10 25.97 26.03 26.05 26.15 26.04 25.93
4/26/2022 04:00 to 3:10 26.06 25.94 25.90 25.82 26.01 25.92
4/26/2022 03:00 to 2:10 25.81 25.86 25.57 25.82 25.68 25.66
4/26/2022 02:00 to 1:10 25.58 25.53 25.47 25.27 25.19 24.87
4/26/2022 01:00 to 0:10 24.99 24.87 24.88 24.79 25.00 24.73
4/26/2022 00:00 to 23:10 24.91 24.81 24.74 24.95 24.89 24.75
4/25/2022 23:00 to 22:10 25.00 24.98 24.84 24.85 24.85 24.83
4/25/2022 22:00 to 21:10 24.88 25.01 24.94 24.69 24.95 24.96
4/25/2022 21:00 to 20:10 24.84 25.25 25.26 25.05 25.23 25.56
4/25/2022 20:00 to 19:10 25.89 25.66 26.14 26.02 26.18 26.41
4/25/2022 19:00 to 18:10 26.29 26.34 26.45 26.54 26.52 26.62
4/25/2022 18:00 to 17:10 26.76 26.61 26.71 26.64 26.51 26.71
4/25/2022 17:00 to 16:10 26.59 26.79 26.86 26.76 26.75 26.79
4/25/2022 16:00 to 15:10 26.96 26.82 26.52 26.40 26.64 26.45
4/25/2022 15:00 to 14:10 26.33 26.16 26.14 25.92 26.08 26.22
4/25/2022 14:00 to 13:10 26.00 24.93 25.00 25.39 25.63 25.20
4/25/2022 13:00 to 12:10 25.22 25.85 25.62 25.17 25.44 25.62
4/25/2022 12:00 to 11:10 25.39 25.51 25.62 25.88 25.52 25.62
4/25/2022 11:00 to 10:10 25.59 25.36 25.97 26.23 25.98 26.54
4/25/2022 10:00 to 9:10 26.91 27.03 26.95 26.97 27.02 26.84
4/25/2022 09:00 to 8:10 26.96 26.84 26.96 27.02 26.86 26.80
4/25/2022 08:00 to 7:10 26.77 26.90 26.74 26.96 27.17 27.08
4/25/2022 07:00 to 6:10 27.14 27.19 27.03 27.28 27.12 27.30
4/25/2022 06:00 to 5:10 27.23 27.37 27.45 27.43 27.67 27.22
4/25/2022 05:00 to 4:10 27.36 27.48 27.31 27.21 26.51 26.43
4/25/2022 04:00 to 3:10 26.26 26.33 26.32 26.78 26.58 26.57
4/25/2022 03:00 to 2:10 26.86 27.11 27.29 27.29 27.56 27.53
4/25/2022 02:00 to 1:10 27.60 27.52 27.65 27.46 27.51 27.65
4/25/2022 01:00 to 0:10 27.68 27.67 27.62 27.65 27.74 27.58
4/25/2022 00:00 to 23:10 27.74 27.60 27.86 27.66 27.71 27.66
4/24/2022 23:00 to 22:10 27.55 27.40 27.62 28.08 28.81 28.76
4/24/2022 22:00 to 21:10 28.33 28.40 28.26 28.42 28.08 28.18
4/24/2022 21:00 to 20:10 28.07 28.19 28.04 28.35 28.30 28.86
4/24/2022 20:00 to 19:10 29.11 29.03 28.63 28.72 28.68 28.52
4/24/2022 19:00 to 18:10 28.62 28.29 28.61 28.30 28.26 28.22
4/24/2022 18:00 to 17:10 28.16 28.36 28.41 28.48 28.43 28.33
4/24/2022 17:00 to 16:10 28.18 28.09 28.11 28.33 28.22 27.97
4/24/2022 16:00 to 15:10 27.98 27.95 28.07 27.98 28.21 27.94
4/24/2022 15:00 to 14:10 27.85 27.82 27.87 27.73 27.84 27.73
4/24/2022 14:00 to 13:10 27.72 27.57 27.64 27.68 27.53 27.31
4/24/2022 13:00 to 12:10 27.30 27.21 27.27 27.14 27.07 27.06
4/24/2022 12:00 to 11:10 27.06 27.04 27.05 27.03 26.94 27.10
4/24/2022 11:00 to 10:10 27.11 27.04 27.11 27.13 27.02 27.09
4/24/2022 10:00 to 9:10 26.95 27.07 27.10 27.04 27.26 27.26
4/24/2022 09:00 to 8:10 27.39 27.44 27.27 27.34 27.08 27.12
4/24/2022 08:00 to 7:10 27.37 27.36 27.35 27.35 27.36 27.21
4/24/2022 07:00 to 6:10 27.27 27.31 27.30 27.24 27.17 26.95
4/24/2022 06:00 to 5:10 26.88 27.05 27.05 26.94 26.92 26.91
4/24/2022 05:00 to 4:10 26.84 26.68 26.85 26.82 26.59 26.74
4/24/2022 04:00 to 3:10 27.54 27.54 27.46 27.43 27.34 27.38
4/24/2022 03:00 to 2:10 27.18 27.29 27.48 27.30 27.19 27.29
4/24/2022 02:00 to 1:10 27.72 27.44 27.35 27.15 27.25 27.29
4/24/2022 01:00 to 0:10 26.98 27.05 27.02 27.08 26.73 26.66
4/24/2022 00:00 to 23:10 26.82 26.79 26.51 26.30 25.77 25.73
4/23/2022 23:00 to 22:10 25.83 26.13 26.47 26.51 27.77 28.00
4/23/2022 22:00 to 21:10 28.14 28.02 28.13 28.39 27.98 28.10
4/23/2022 21:00 to 20:10 28.07 27.99 27.74 27.79 27.84 27.92
4/23/2022 20:00 to 19:10 27.58 27.61 27.75 27.68 27.68 27.64
4/23/2022 19:00 to 18:10 27.49 27.51 27.73 27.45 27.50 27.41
4/23/2022 18:00 to 17:10 27.44 27.33 27.32 27.38 27.35 27.40
4/23/2022 17:00 to 16:10 27.28 27.27 27.22 27.25 27.17 27.10
4/23/2022 16:00 to 15:10 27.27 27.11 27.10 27.02 27.03 27.07
4/23/2022 15:00 to 14:10 26.96 27.00 26.97 26.98 26.98 27.00
4/23/2022 14:00 to 13:10 27.03 26.98 26.98 26.91 26.83 26.83
4/23/2022 13:00 to 12:10 26.80 26.88 26.87 26.88 26.75 26.69
4/23/2022 12:00 to 11:10 26.79 26.71 26.72 26.76 26.77 26.81
4/23/2022 11:00 to 10:10 26.81 26.74 26.84 26.70 26.80 26.71
4/23/2022 10:00 to 9:10 26.81 26.79 26.85 26.88 26.69 26.68
4/23/2022 09:00 to 8:10 26.82 26.87 26.76 26.73 26.79 26.79
4/23/2022 08:00 to 7:10 26.79 26.81 26.92 26.77 27.01 26.85
4/23/2022 07:00 to 6:10 26.90 26.89 26.88 26.98 26.92 26.98
4/23/2022 06:00 to 5:10 27.12 27.05 27.00 27.15 27.04 27.10
4/23/2022 05:00 to 4:10 26.94 27.08 27.08 27.10 27.03 27.10
4/23/2022 04:00 to 3:10 27.14 27.09 27.06 27.06 27.01 27.11
4/23/2022 03:00 to 2:10 27.15 27.07 27.33 27.30 27.18 27.18
4/23/2022 02:00 to 1:10 27.17 27.29 27.24 27.15 27.05 27.05
4/23/2022 01:00 to 0:10 26.86 27.06 26.97 27.01 27.18 27.09
4/23/2022 00:00 to 23:10 26.99 26.85 27.29 27.25 27.27 27.07
4/22/2022 23:00 to 22:10 27.28 27.23 27.45 27.49 27.55 27.62
4/22/2022 22:00 to 21:10 27.58 27.47 27.52 27.46 27.33 27.32
4/22/2022 21:00 to 20:10 27.36 27.36 27.33 27.21 27.23 27.06
4/22/2022 20:00 to 19:10 27.14 27.11 27.22 27.16 27.07 27.12
4/22/2022 19:00 to 18:10 27.13 27.21 27.26 27.06 27.01 26.87
4/22/2022 18:00 to 17:10 26.98 26.93 27.08 27.02 26.93 26.97
4/22/2022 17:00 to 16:10 26.95 26.92 27.03 26.95 26.87 26.96
4/22/2022 16:00 to 15:10 26.83 26.97 26.93 27.03 26.53 26.58
4/22/2022 15:00 to 14:10 26.62 26.68 26.65 26.65 26.55 26.80
4/22/2022 14:00 to 13:10 26.49 26.67 26.38 26.37 26.62 26.67
4/22/2022 13:00 to 12:10 26.68 26.63 26.52 26.45 26.62 26.48
4/22/2022 12:00 to 11:10 26.48 26.43 26.44 26.40 26.49 26.48
4/22/2022 11:00 to 10:10 26.53 26.40 26.32 26.37 26.20 26.20
4/22/2022 10:00 to 9:10 26.23 26.32 26.24 26.18 26.28 26.22
4/22/2022 09:00 to 8:10 26.16 26.17 26.34 26.39 26.18 26.09
4/22/2022 08:00 to 7:10 26.08 25.96 26.07 26.01 25.99 25.98
4/22/2022 07:00 to 6:10 25.83 25.94 25.96 25.83 25.64 25.70
4/22/2022 06:00 to 5:10 25.50 25.24 25.53 25.40 25.20 25.25
4/22/2022 05:00 to 4:10 25.19 25.18 24.97 24.93 24.85 24.75
4/22/2022 04:00 to 3:10 24.66 24.67 24.41 24.35 24.23 24.11
4/22/2022 03:00 to 2:10 23.91 23.81 23.76 23.78 23.74 23.53
4/22/2022 02:00 to 1:10 23.59 23.56 23.39 23.32 23.30 23.47
4/22/2022 01:00 to 0:10 23.51 23.65 23.64 23.39 23.39 23.95